Temp
10 11 11 11 10 12 15 15 14 14 14 15 15 14 15 16 15 16 15 14 14 14 14 14 14 13 13 12 12 12 11 11 11 11 11 10 10 10 10 10 9 9 9 9 9 9 9 9 9
10 10 10 9 11 14 15 15 14 15 14 15 15 15 14 15 15 15 15 14 14 14 14 14 14 13 13 13 12 12 12 11 11 11 11 10 10 10 10 10 9 9 9 9 9 9 9 9 9
10 10 9 10 12 14 17 15 15 14 14 14 14 14 14 14 15 14 14 14 14 14 14 14 14 13 13 13 13 12 12 12 11 11 11 11 10 10 10 10 9 9 9 9 9 9 9 9 9
9 9 9 10 13 13 14 14 13 13 14 14 14 14 14 15 15 14 14 14 14 14 14 13 13 13 13 13 12 12 12 12 11 11 11 11 11 10 10 10 10 9 9 9 9 9 9 8 8
9 8 9 11 12 13 13 13 12 13 13 14 14 14 14 14 14 14 14 13 13 13 13 13 13 13 13 13 13 12 12 11 11 11 11 11 11 10 10 10 10 10 9 9 9 9 9 8 8
7 8 10 11 12 12 12 12 12 13 14 14 14 14 14 14 14 14 13 13 13 13 13 13 13 13 13 13 12 12 12 11 11 11 11 11 10 10 10 10 10 10 9 9 9 9 9 8 8
9 8 10 11 12 12 13 13 12 13 14 14 14 14 14 14 14 13 13 13 13 13 13 13 13 13 12 12 12 12 12 11 11 11 11 11 10 10 10 10 10 9 9 9 9 9 8 8 8
8 8 9 11 11 11 12 12 12 13 13 13 13 14 13 13 13 13 13 13 13 13 13 13 13 12 12 12 12 12 12 12 11 11 11 11 10 10 10 10 10 9 9 9 9 8 8 8 8
8 8 10 11 11 11 11 11 12 12 12 12 13 13 12 13 13 13 13 12 12 12 12 13 12 12 12 12 12 12 12 12 12 12 11 11 11 11 10 10 9 9 9 8 8 8 8 8 8
7 8 10 10 10 10 11 11 12 12 12 12 12 12 12 12 12 12 12 12 13 13 13 13 12 12 12 12 12 12 12 12 12 12 12 11 11 11 10 10 9 9 9 9 8 8 8 7 7
7 8 10 10 9 10 11 10 11 11 12 13 12 12 12 12 12 12 12 12 12 12 12 13 13 12 12 12 12 12 12 12 12 12 12 11 11 11 11 10 10 10 9 8 8 8 8 7 7
6 7 8 9 9 9 11 10 10 11 11 12 11 11 12 12 12 12 12 12 12 12 12 12 12 12 12 12 12 12 12 12 12 12 12 11 11 11 11 10 10 9 8 8 7 7 7 7 7
6 7 7 7 7 7 10 11 10 10 10 11 12 12 12 12 12 12 12 12 13 12 12 12 12 12 12 12 12 12 12 12 12 12 12 12 11 11 11 10 10 10 9 8 7 7 6 7 7
6 6 6 7 7 7 7 11 9 11 10 11 11 12 13 13 13 13 13 13 13 13 13 12 12 12 12 11 11 11 12 12 12 12 12 12 12 11 11 10 10 10 9 8 7 6 7 7 7
4 5 5 6 7 6 6 7 11 12 10 10 12 12 12 12 13 13 13 13 13 13 12 12 11 11 11 11 11 12 11 12 12 12 12 12 12 11 11 10 10 10 9 8 7 7 7 7 7
3 3 5 7 6 6 6 8 13 12 11 10 12 12 12 12 13 13 13 13 13 13 12 12 11 11 11 11 11 12 12 12 12 12 12 12 12 11 11 11 10 10 9 8 7 7 7 6 6
4 5 6 7 7 7 6 7 12 9 9 10 10 11 12 12 12 13 13 13 13 12 12 12 11 11 11 11 11 12 12 12 12 12 12 12 12 12 12 11 10 10 9 8 8 7 7 6 6
5 6 6 7 8 7 7 7 8 9 9 10 10 10 10 11 12 13 13 13 13 12 12 12 11 11 11 11 11 12 12 12 12 12 12 12 12 12 12 11 10 10 9 9 8 7 7 6 6
3 5 6 6 7 7 7 7 7 8 8 8 9 8 8 9 12 12 12 13 13 12 12 11 11 11 11 11 11 12 12 12 12 12 12 12 12 12 11 11 10 10 9 9 8 7 7 6 5
2 2 4 4 5 5 6 6 7 7 8 8 8 8 8 9 11 12 12 13 12 11 11 11 11 11 11 11 11 11 12 12 12 12 12 12 11 11 11 11 10 10 9 8 8 8 7 6 5
1 1 2 4 4 4 5 5 6 6 6 6 6 8 9 10 11 12 12 12 11 11 12 11 11 11 10 11 11 11 11 12 11 11 11 11 11 11 11 10 10 9 9 8 8 7 6 5 5
0 1 2 2 3 4 5 7 7 7 7 7 7 7 8 11 11 11 11 12 12 12 11 12 11 11 11 11 11 11 12 12 12 11 11 11 11 11 10 10 10 9 8 8 7 6 6 5 5
1 1 2 2 2 3 4 5 7 7 7 7 7 7 7 10 11 10 11 12 12 12 12 11 11 11 11 11 11 11 11 11 11 11 11 11 11 10 10 10 9 9 8 7 6 6 5 5 4
-0 0 1 1 2 4 4 5 7 7 8 8 8 8 8 9 10 10 11 11 13 13 12 11 11 11 11 11 11 11 11 11 11 11 11 10 10 10 10 9 9 8 7 6 6 6 5 5 4
-0 0 2 2 3 3 4 5 5 7 8 7 7 7 7 7 8 9 11 12 11 12 12 12 12 12 12 12 12 12 12 12 11 11 11 10 10 9 9 8 8 7 7 6 6 5 5 4 4
-1 0 2 3 5 6 4 5 6 6 6 6 6 7 7 7 7 9 11 11 11 11 12 12 12 12 12 12 12 12 12 11 11 10 10 10 9 9 8 7 7 6 6 6 5 5 5 4 4
-1 -1 -0 2 3 6 6 5 5 6 6 6 6 6 6 9 9 10 10 11 11 11 11 11 12 12 12 12 11 11 11 11 10 10 10 9 9 8 7 7 6 7 6 5 5 4 4 4 3
-2 -2 -3 1 2 4 8 7 7 7 6 7 6 5 6 9 10 10 11 11 11 11 11 11 11 11 11 11 11 11 11 10 10 10 9 9 8 8 7 6 7 6 5 5 4 4 4 3 3
-3 -3 -3 -0 2 6 7 8 7 7 5 5 5 5 6 9 10 10 11 11 11 11 11 11 11 11 11 11 10 10 10 10 9 9 9 8 7 7 7 6 6 5 5 4 4 4 3 3 3
-3 -4 -3 -3 1 3 4 7 5 5 4 3 4 4 5 10 10 11 10 11 11 11 11 11 11 11 10 10 10 10 9 9 9 8 7 7 7 6 6 6 5 5 4 4 4 3 3 3 3
Height
3160 3163 3165 3167 3174 3167 3162 3162 3161 3162 3164 3164 3165 3168 3170 3173 3173 3175 3171 3172 3173 3173 3172 3173 3173 3172 3173 3172 3172 3173 3172 3173 3173 3173 3173 3173 3172 3172 3172 3171 3170 3169 3169 3168 3167 3166 3163 3161 3158
3158 3161 3163 3166 3167 3161 3158 3160 3160 3161 3162 3162 3164 3166 3167 3171 3172 3170 3170 3170 3171 3172 3171 3171 3171 3172 3172 3171 3172 3173 3173 3172 3173 3173 3173 3173 3173 3173 3173 3172 3171 3169 3168 3168 3167 3165 3163 3162 3160
3156 3158 3163 3164 3161 3157 3154 3158 3160 3159 3159 3161 3163 3164 3167 3170 3168 3169 3169 3170 3169 3170 3170 3170 3170 3171 3171 3171 3172 3172 3173 3173 3173 3173 3172 3172 3172 3171 3172 3172 3171 3169 3168 3167 3167 3165 3164 3162 3160
3154 3157 3158 3157 3154 3156 3156 3158 3157 3158 3159 3160 3162 3164 3164 3164 3166 3168 3168 3169 3169 3168 3169 3170 3170 3171 3171 3172 3172 3172 3172 3172 3172 3172 3172 3171 3170 3171 3172 3171 3170 3169 3169 3167 3166 3165 3163 3161 3159
3152 3153 3154 3153 3150 3153 3154 3155 3155 3156 3158 3159 3160 3161 3162 3161 3163 3165 3166 3168 3168 3168 3169 3169 3169 3170 3171 3171 3171 3172 3172 3172 3172 3172 3171 3171 3170 3170 3171 3170 3169 3169 3168 3167 3165 3164 3162 3161 3159
3149 3151 3150 3147 3148 3150 3150 3152 3153 3154 3156 3157 3158 3159 3160 3158 3161 3163 3164 3166 3167 3167 3168 3168 3169 3169 3169 3169 3169 3170 3170 3171 3170 3170 3170 3170 3169 3169 3169 3168 3168 3168 3167 3166 3165 3163 3162 3160 3158
3145 3147 3144 3144 3145 3146 3148 3150 3150 3153 3154 3155 3156 3157 3156 3156 3158 3161 3162 3164 3165 3166 3166 3167 3167 3167 3168 3168 3168 3168 3168 3168 3169 3168 3168 3168 3167 3167 3166 3166 3166 3166 3165 3164 3163 3161 3160 3158 3157
3142 3142 3140 3139 3142 3140 3146 3146 3147 3150 3153 3151 3151 3154 3155 3153 3156 3158 3160 3161 3162 3163 3164 3164 3165 3165 3166 3166 3167 3166 3166 3166 3166 3166 3166 3165 3164 3163 3163 3163 3163 3162 3162 3161 3160 3158 3157 3155 3154
3136 3136 3132 3134 3137 3139 3140 3141 3144 3145 3146 3148 3150 3152 3149 3150 3153 3156 3157 3159 3158 3160 3161 3162 3162 3163 3163 3163 3163 3163 3163 3163 3163 3163 3162 3162 3161 3160 3160 3160 3160 3159 3158 3157 3155 3154 3153 3152 3151
3125 3125 3125 3132 3134 3133 3135 3137 3141 3141 3142 3144 3144 3145 3146 3148 3150 3153 3155 3156 3156 3158 3157 3157 3158 3159 3159 3159 3159 3160 3159 3159 3159 3159 3159 3157 3157 3156 3155 3155 3155 3155 3154 3153 3152 3151 3150 3149 3148
3116 3111 3124 3125 3128 3129 3131 3132 3135 3134 3137 3140 3143 3143 3144 3144 3144 3146 3151 3153 3154 3153 3153 3153 3154 3154 3154 3154 3154 3154 3154 3155 3155 3155 3154 3153 3152 3152 3152 3152 3152 3150 3149 3149 3150 3148 3147 3146 3145
3110 3108 3113 3120 3124 3121 3123 3127 3126 3129 3130 3135 3136 3136 3138 3141 3141 3141 3143 3145 3149 3149 3149 3149 3149 3150 3150 3149 3149 3149 3150 3150 3150 3150 3149 3147 3147 3147 3147 3147 3146 3147 3145 3143 3143 3144 3144 3143 3141
3099 3102 3108 3111 3114 3112 3115 3115 3118 3118 3124 3126 3127 3127 3131 3135 3137 3137 3138 3140 3142 3143 3145 3144 3143 3144 3143 3144 3143 3145 3146 3145 3145 3143 3142 3142 3141 3141 3141 3141 3142 3140 3139 3140 3140 3138 3136 3138 3135
3098 3098 3099 3103 3105 3105 3106 3107 3113 3108 3117 3118 3119 3121 3125 3127 3130 3130 3131 3132 3134 3135 3137 3138 3137 3137 3136 3137 3138 3138 3139 3138 3137 3136 3135 3135 3135 3134 3134 3136 3135 3134 3135 3136 3136 3134 3134 3133 3129
3087 3089 3090 3089 3095 3096 3101 3095 3091 3106 3110 3110 3112 3114 3117 3120 3122 3122 3125 3125 3127 3127 3127 3129 3129 3129 3129 3131 3132 3131 3131 3131 3130 3129 3129 3128 3128 3128 3128 3129 3128 3127 3128 3129 3129 3129 3127 3126 3124
3080 3083 3079 3072 3086 3086 3095 3079 3081 3097 3099 3099 3104 3107 3108 3110 3113 3115 3116 3119 3119 3119 3119 3120 3121 3121 3122 3123 3124 3124 3124 3123 3124 3123 3122 3122 3122 3121 3121 3120 3120 3121 3121 3122 3121 3123 3121 3120 3119
3072 3064 3064 3070 3076 3083 3083 3070 3073 3087 3091 3090 3094 3095 3098 3101 3103 3105 3108 3110 3109 3110 3111 3111 3113 3113 3113 3114 3115 3116 3116 3117 3115 3115 3115 3115 3115 3115 3114 3113 3114 3116 3115 3115 3115 3116 3116 3114 3113
3056 3059 3064 3065 3069 3074 3071 3060 3069 3078 3081 3082 3086 3088 3089 3089 3093 3097 3097 3099 3100 3100 3100 3101 3103 3104 3105 3105 3106 3107 3108 3109 3108 3108 3108 3108 3108 3108 3107 3107 3109 3110 3109 3109 3109 3109 3108 3108 3108
3058 3056 3053 3057 3061 3063 3060 3057 3061 3069 3071 3071 3074 3076 3077 3077 3082 3085 3087 3088 3089 3089 3090 3091 3092 3094 3095 3095 3096 3099 3100 3100 3101 3101 3101 3100 3101 3101 3101 3102 3104 3104 3104 3104 3104 3104 3103 3103 3103
3051 3051 3048 3053 3053 3055 3055 3049 3054 3057 3057 3061 3064 3064 3064 3067 3070 3073 3076 3076 3077 3079 3079 3081 3081 3082 3084 3085 3089 3091 3093 3093 3093 3093 3093 3093 3094 3095 3096 3097 3097 3097 3098 3098 3098 3099 3098 3097 3098
3045 3045 3047 3048 3050 3048 3049 3043 3043 3045 3047 3048 3049 3051 3054 3056 3060 3062 3063 3065 3068 3067 3070 3070 3071 3074 3076 3079 3080 3083 3084 3086 3087 3086 3086 3088 3088 3089 3090 3091 3092 3092 3092 3092 3091 3092 3092 3092 3092
3038 3042 3042 3044 3045 3037 3044 3031 3034 3037 3037 3040 3042 3044 3045 3047 3049 3051 3052 3054 3056 3057 3058 3060 3063 3066 3069 3072 3074 3076 3078 3078 3080 3080 3081 3082 3082 3083 3084 3085 3086 3086 3085 3086 3087 3087 3087 3087 3085
3033 3036 3037 3037 3035 3037 3033 3033 3023 3030 3029 3032 3035 3036 3037 3037 3040 3041 3042 3043 3045 3047 3050 3053 3055 3058 3062 3066 3068 3070 3071 3072 3073 3074 3075 3075 3076 3077 3078 3079 3080 3080 3080 3081 3082 3082 3081 3080 3079
3031 3032 3032 3033 3031 3022 3022 3027 3016 3021 3020 3026 3029 3029 3029 3029 3030 3030 3033 3034 3037 3039 3043 3047 3050 3053 3056 3059 3061 3063 3064 3065 3067 3068 3069 3070 3071 3072 3073 3073 3074 3074 3075 3076 3075 3075 3075 3074 3074
3027 3027 3023 3021 3018 3013 3018 3021 3017 3013 3013 3019 3021 3022 3023 3021 3020 3021 3026 3028 3029 3032 3036 3040 3044 3047 3049 3051 3054 3055 3057 3058 3060 3063 3064 3065 3065 3066 3067 3068 3068 3069 3070 3070 3069 3069 3069 3069 3069
3022 3020 3015 3002 2999 3004 3013 3007 3009 3012 3013 3012 3014 3015 3016 3015 3015 3016 3018 3022 3025 3028 3031 3034 3038 3041 3044 3045 3047 3049 3050 3052 3055 3058 3059 3059 3060 3061 3062 3063 3065 3065 3065 3064 3065 3064 3064 3065 3065
3016 3015 3014 3007 3003 2992 2993 3005 3007 3008 3010 3011 3012 3010 3008 3007 3009 3011 3013 3018 3022 3025 3028 3032 3035 3036 3039 3041 3042 3045 3047 3050 3052 3053 3054 3055 3056 3056 3057 3059 3060 3060 3060 3060 3060 3060 3061 3062 3062
3011 3013 3012 3005 3003 2988 2983 2991 2996 2995 3004 3008 3007 3004 3000 3001 3005 3007 3011 3015 3020 3023 3026 3028 3030 3033 3036 3038 3040 3042 3044 3046 3047 3048 3049 3051 3052 3053 3054 3055 3055 3056 3056 3056 3057 3057 3058 3059 3059
3007 3006 3007 3005 2998 2983 2977 2979 2987 2995 2999 3003 3003 2999 2996 2997 2999 3003 3008 3013 3017 3021 3023 3026 3029 3032 3034 3036 3038 3039 3041 3042 3043 3045 3046 3048 3049 3050 3051 3051 3052 3053 3053 3054 3054 3055 3055 3056 3057
3002 3005 3004 3004 2998 2989 2989 2978 2982 2989 2995 2995 2995 2995 2993 2992 2995 3000 3006 3010 3014 3018 3021 3024 3027 3030 3032 3033 3035 3037 3038 3039 3040 3042 3043 3045 3046 3047 3048 3049 3049 3050 3051 3051 3051 3052 3052 3052 3053
Wind_Speed
13 13 11 12 7 11 18 14 11 13 11 18 15 12 16 11 16 3 8 18 7 7 9 10 12 17 16 17 16 14 14 12 11 8 10 11 13 15 15 16 18 21 24 25 25 28 29 27 20
14 14 14 10 12 17 19 15 16 13 11 18 13 10 17 14 15 11 9 18 8 8 9 9 9 14 15 15 15 14 13 12 9 8 6 7 8 9 10 11 13 16 19 19 20 24 26 26 28
13 16 12 11 20 21 12 14 15 11 14 14 11 13 13 13 15 11 14 14 9 7 9 9 9 10 12 14 13 9 9 9 6 5 5 6 7 8 9 10 10 12 14 15 14 16 18 21 23
13 16 18 18 21 22 13 10 13 8 13 17 11 11 15 16 13 15 18 11 9 8 10 9 8 8 8 10 9 5 3 4 2 4 5 6 8 10 11 11 11 12 12 13 13 14 15 17 19
13 15 18 22 27 21 17 13 11 7 10 14 16 12 12 13 16 18 16 11 6 7 8 8 5 6 4 5 6 4 1 2 2 4 6 7 9 10 12 13 13 13 13 14 15 15 16 17 17
12 14 20 28 25 24 21 15 13 11 12 15 16 13 12 16 18 21 16 11 6 6 7 8 3 2 1 2 4 4 4 6 7 8 9 10 12 14 14 15 16 16 16 16 16 17 16 16 18
18 17 25 25 23 25 22 18 14 10 14 15 15 15 13 21 24 21 17 12 11 10 9 8 5 3 3 7 7 7 7 9 11 11 12 14 15 17 18 18 18 17 17 17 18 18 19 17 18
23 19 25 27 29 27 16 16 20 15 14 16 16 17 17 23 22 23 19 12 12 14 12 11 8 4 5 8 12 11 9 10 13 17 19 18 18 19 19 20 20 20 20 20 20 21 21 21 19
28 27 30 29 27 23 16 17 18 17 19 18 16 12 16 22 25 24 17 16 15 17 18 17 14 11 10 12 13 15 13 11 15 18 20 23 21 21 22 23 24 23 23 23 22 22 23 24 23
35 33 37 29 24 23 21 18 17 19 22 22 17 19 22 24 23 19 18 15 14 15 17 20 19 18 20 19 18 16 17 15 15 20 24 27 26 23 25 26 27 27 24 25 24 24 25 25 26
37 45 32 32 28 25 25 27 20 22 27 27 21 19 22 25 30 29 18 16 16 18 20 21 21 24 26 25 23 23 23 21 20 24 25 28 28 26 25 25 25 29 29 25 24 25 28 28 27
38 39 39 34 28 29 33 28 32 29 29 29 27 29 27 28 28 30 28 22 26 24 21 23 23 22 24 25 26 24 23 23 25 26 25 28 29 28 26 24 28 31 32 37 22 23 32 30 26
40 44 35 35 31 30 37 41 37 37 31 31 40 38 34 31 34 34 32 31 31 35 35 32 33 31 28 28 27 25 24 26 30 31 29 29 29 29 28 31 29 30 35 30 21 27 24 28 28
36 36 43 38 32 32 38 47 32 46 36 41 43 42 37 38 39 40 41 41 38 38 42 36 37 33 32 31 30 30 31 34 34 37 31 28 30 32 31 29 28 32 37 29 33 23 29 28 35
36 37 33 35 43 40 27 44 55 49 39 37 50 45 43 44 43 43 42 41 37 36 39 41 38 37 36 35 30 29 31 35 33 34 33 30 31 31 31 29 33 33 36 35 31 30 26 35 37
25 33 41 52 36 38 35 48 64 50 48 45 53 52 50 49 50 50 50 48 43 41 40 38 38 40 38 39 36 33 33 32 33 34 34 30 31 30 32 35 36 32 36 36 36 33 35 37 37
31 42 45 46 41 39 30 56 68 51 40 44 40 51 55 52 54 55 51 49 49 47 46 45 42 42 41 41 38 34 31 30 30 33 35 35 29 30 34 37 35 32 34 34 33 32 35 36 34
43 37 41 42 36 38 44 53 48 32 27 42 45 40 40 52 58 51 51 50 50 50 49 49 46 43 41 40 40 38 32 32 32 31 31 34 33 30 31 32 30 32 33 30 30 27 30 32 31
35 36 35 35 35 34 45 53 48 43 44 43 37 37 39 41 54 56 55 53 53 49 45 45 46 46 43 42 38 34 33 34 36 34 35 30 34 30 29 28 31 32 30 29 25 25 30 28 27
35 37 40 27 25 33 40 45 42 40 43 43 43 44 47 54 57 56 55 56 50 44 41 39 40 39 38 34 32 33 32 30 28 33 32 29 30 30 27 28 28 30 29 27 21 32 32 28 26
31 36 36 36 21 27 28 36 38 38 35 38 41 45 49 51 52 50 50 47 43 44 40 39 39 34 32 32 34 34 32 30 27 25 23 25 28 26 30 27 28 28 29 29 29 29 28 27 24
34 31 29 36 34 35 25 28 35 34 37 41 42 40 43 45 45 45 44 41 39 39 38 38 37 34 35 33 32 31 31 27 27 26 24 25 26 28 28 27 29 28 28 29 27 25 26 24 24
25 29 29 26 34 38 41 30 34 30 34 33 31 34 35 41 39 38 35 35 34 34 34 32 31 31 34 34 32 32 28 27 28 29 27 28 28 27 25 26 28 27 26 26 24 23 22 22 21
20 19 27 28 24 25 35 30 32 31 35 26 27 29 28 30 31 34 27 25 30 35 36 29 26 25 29 34 31 31 31 31 29 28 27 27 27 27 27 27 27 26 23 22 22 20 22 21 17
16 22 17 22 25 19 30 27 30 3 11 12 11 12 14 17 23 28 30 29 25 25 29 30 28 28 25 25 26 27 27 30 28 26 26 25 24 25 25 25 23 21 21 21 19 20 18 16 14
27 27 26 18 16 22 38 20 27 21 25 14 12 12 12 13 15 21 29 21 15 17 17 18 17 17 18 20 20 22 23 23 23 24 23 23 23 24 25 22 20 21 19 18 17 15 14 12 13
28 24 29 34 29 23 31 35 31 17 7 5 4 8 12 18 21 19 17 19 17 14 14 14 14 14 14 14 15 16 19 20 21 21 21 21 21 21 19 18 18 18 17 15 13 12 10 10 10
23 20 11 31 16 18 19 31 21 22 25 11 5 10 12 21 16 17 19 18 16 15 14 12 14 14 15 16 16 17 18 18 19 18 17 17 17 16 15 16 16 14 13 11 10 10 10 10 9
16 15 17 21 30 9 13 21 28 16 18 7 5 13 10 16 17 18 20 18 17 15 12 14 16 14 15 15 15 15 15 15 15 14 13 14 15 14 13 13 12 10 9 9 8 9 9 8 11
8 16 19 9 20 24 16 5 16 24 11 8 14 17 13 13 17 22 21 21 18 13 14 17 16 15 12 12 11 11 11 11 12 13 14 13 11 11 12 10 9 8 8 7 8 8 10 14 12
Wind_Direction
219 217 219 211 214 226 227 212 188 177 183 190 182 172 193 188 182 195 226 196 186 122 89 78 71 79 77 81 80 73 64 58 51 37 34 40 45 48 47 46 48 49 45 41 38 38 40 37 26
219 215 217 209 227 223 219 200 185 174 182 176 176 160 176 200 202 227 203 191 177 132 108 102 68 73 72 68 65 65 64 61 45 32 14 17 23 27 30 34 41 47 45 41 40 37 33 32 33
215 215 205 225 233 231 206 199 187 193 181 167 173 174 188 205 204 201 194 186 170 134 120 125 89 71 75 66 54 56 53 58 52 20 5 349 347 349 353 360 11 21 32 30 28 32 31 29 27
217 220 222 224 228 221 215 197 187 190 189 175 183 185 200 206 212 206 175 180 155 123 139 128 94 84 77 63 58 60 65 50 30 324 327 331 331 325 324 329 335 345 356 5 8 10 15 18 21
232 218 224 238 236 231 226 209 217 211 201 191 184 193 195 216 209 190 178 171 157 130 140 146 103 86 97 75 42 24 210 257 286 297 304 306 307 307 306 310 316 321 328 336 345 350 355 0 5
228 219 231 237 241 237 234 228 227 230 206 202 201 201 201 185 179 169 169 176 177 174 166 167 153 103 162 262 344 335 282 261 268 283 291 292 295 295 295 298 301 306 312 319 324 329 334 343 348
234 235 240 242 244 240 236 230 227 210 208 208 201 195 186 174 182 181 181 187 190 202 184 187 206 249 263 258 269 286 281 274 272 276 280 283 285 286 288 287 290 295 300 304 307 312 318 325 332
241 240 246 242 244 246 234 234 220 218 208 198 180 190 180 187 188 188 188 196 198 205 202 216 235 243 275 285 275 278 279 294 280 274 270 271 278 281 284 286 288 288 289 292 296 302 308 314 320
236 238 243 240 240 241 233 236 224 219 208 198 182 182 194 197 196 190 199 202 203 209 214 223 236 244 265 274 274 275 264 288 289 283 279 278 277 278 280 281 280 281 284 284 290 296 302 307 308
231 235 241 241 241 244 246 239 223 228 213 199 186 191 177 172 173 188 201 211 219 221 223 228 237 243 252 263 264 259 259 267 281 281 277 274 275 276 277 278 280 282 286 287 289 294 297 300 303
235 237 244 242 240 243 246 236 232 228 217 210 208 218 206 194 185 193 213 220 221 228 235 240 238 242 250 255 257 256 252 252 264 273 273 275 276 273 276 283 289 282 277 278 292 303 300 297 299
235 240 241 241 241 240 242 241 239 237 233 215 230 219 212 216 214 212 219 231 238 237 233 246 251 246 249 251 253 258 262 257 258 268 275 272 273 276 267 266 276 289 285 282 278 275 293 297 298
240 241 242 248 238 245 240 241 242 242 240 239 228 233 229 227 228 232 239 248 257 252 250 256 255 258 249 248 250 258 265 266 265 266 265 265 267 270 267 266 273 275 276 279 277 277 279 290 292
240 249 246 240 246 242 246 239 245 242 243 242 243 236 239 234 241 243 259 267 271 266 250 261 257 252 250 246 258 270 277 275 267 264 262 264 263 267 267 270 264 268 278 283 274 292 293 284 289
239 247 246 242 238 242 244 250 236 237 240 248 246 244 248 254 257 256 262 268 272 268 259 260 254 251 254 259 265 272 275 274 261 266 258 263 261 270 263 256 252 261 271 272 265 279 273 277 285
243 245 246 242 240 240 232 249 244 243 246 249 250 252 255 259 261 262 265 268 266 264 264 263 254 253 256 262 268 275 272 269 263 262 257 264 263 270 261 249 247 260 269 272 270 271 267 276 279
241 240 238 249 238 239 226 244 248 244 246 252 252 253 253 258 257 260 263 262 262 263 264 264 261 257 257 261 266 275 271 265 262 259 258 262 264 269 265 252 246 263 270 269 270 266 266 272 272
233 240 248 250 243 238 237 246 246 242 244 248 251 252 255 258 258 261 262 262 264 265 263 263 261 262 262 264 269 274 260 258 260 258 262 265 256 266 273 254 251 261 268 271 271 259 263 266 271
249 250 249 251 245 241 237 245 251 248 249 247 246 251 252 255 255 258 263 265 267 266 266 265 266 261 262 265 269 264 253 255 259 266 263 261 254 263 264 251 253 267 267 277 263 259 264 271 273
245 245 246 254 240 236 238 246 251 248 247 249 252 254 256 259 263 265 262 263 266 266 265 265 264 259 255 251 256 249 248 257 266 263 263 258 257 265 252 250 259 261 266 265 256 268 270 269 271
244 243 243 241 249 239 242 250 246 246 249 248 250 256 260 259 261 262 260 263 266 263 261 258 256 252 240 238 238 242 247 258 260 262 257 263 264 257 250 254 263 265 266 262 256 264 268 266 271
248 242 247 243 241 243 234 256 250 253 256 254 256 257 260 260 260 265 268 264 260 254 252 251 251 246 233 233 240 245 250 251 252 256 256 254 256 253 255 255 260 263 264 258 262 262 264 265 276
257 241 243 244 240 245 245 254 257 248 250 250 252 256 260 262 266 265 266 260 250 243 240 244 245 236 229 235 245 248 245 248 251 252 253 252 252 258 257 259 261 264 260 259 266 264 262 269 267
251 245 242 236 249 244 238 237 259 254 249 249 261 258 261 258 256 251 251 250 247 239 235 241 240 231 236 240 246 246 244 250 250 249 248 250 256 255 258 260 259 259 258 262 260 269 265 265 258
234 232 234 225 226 238 234 233 240 352 180 214 266 234 255 254 247 243 247 251 251 244 239 237 239 245 244 240 240 242 241 248 239 239 246 250 252 253 254 255 257 253 259 260 266 264 260 253 245
234 229 234 232 228 230 229 233 225 240 258 255 251 264 262 265 242 227 235 231 224 221 221 219 218 221 228 241 237 243 237 221 226 235 243 247 247 249 252 251 252 259 259 265 261 253 249 240 249
240 236 241 255 276 242 223 221 244 232 232 213 249 289 286 243 218 226 219 201 208 203 200 197 217 226 216 219 211 209 216 224 235 241 245 245 247 249 247 248 251 262 263 258 249 242 233 242 250
230 248 279 236 255 234 224 212 219 222 226 226 269 325 287 238 214 202 196 205 196 192 191 210 204 200 208 205 211 218 224 233 237 235 237 240 241 241 241 250 256 252 249 242 233 230 236 241 253
240 236 241 236 233 255 225 210 210 146 149 149 16 0 325 213 212 197 191 192 186 187 203 193 187 194 201 207 213 222 229 228 227 230 232 231 234 243 247 244 241 233 228 221 225 234 242 248 250
273 247 243 265 226 245 299 90 148 162 142 47 23 11 351 205 195 187 187 185 180 192 187 183 189 195 201 199 205 209 221 230 233 231 233 234 235 230 227 223 216 212 204 220 239 248 241 245 252